SCP
0 0 -0 0 0 0 0 0 0 0 0 0 0 1 1 2 1 0 0 0 0 0 1 1 1 1 0 1 1 1 1 1 0 0 0 0 0 0 0 0 0 0 0
0 0 0 0 0 0 0 0 0 0 0 0 0 0 1 1 2 2 2 1 1 1 1 1 1 1 1 1 1 1 1 1 0 0 -0 0 0 0 0 0 1 0 0
0 0 0 0 0 0 0 0 1 0 0 0 0 0 0 0 0 0 0 0 1 1 1 1 1 1 1 1 1 1 1 1 1 0 1 1 1 -0 -0 0 0 0 0
0 0 0 0 0 0 0 0 0 0 0 0 0 0 0 0 0 0 0 0 0 0 0 0 1 1 1 1 1 1 1 0 0 0 1 1 1 0 0 0 0 0 0
0 0 0 0 0 0 0 0 0 0 0 0 0 0 0 0 0 0 0 0 0 0 0 0 0 0 0 0 0 1 1 0 0 0 0 1 1 0 1 0 0 0 0
0 0 0 0 0 0 0 0 0 0 0 0 0 0 0 0 0 0 0 0 0 0 0 0 0 0 0 0 0 0 0 0 1 1 1 1 1 1 0 0 0 0 0
0 0 0 0 0 0 0 0 0 0 0 0 0 0 0 0 0 0 0 0 0 0 0 0 0 0 0 0 0 0 0 0 0 0 0 0 0 1 0 0 0 0 0
0 0 0 0 0 0 0 0 0 0 0 0 0 0 0 0 0 0 0 0 0 0 0 0 0 0 0 0 0 0 0 0 0 0 0 0 0 0 0 0 0 0 0
0 0 0 0 0 0 0 0 0 0 0 0 0 0 0 0 0 0 0 0 0 0 0 0 0 0 0 0 0 0 0 0 0 0 0 0 0 0 0 0 0 0 0
0 0 0 0 0 0 0 0 0 0 0 0 0 0 0 0 0 0 0 0 0 0 0 0 0 0 0 0 0 0 0 0 0 0 0 0 0 0 0 0 0 0 0
0 0 0 0 0 0 0 0 0 0 0 0 0 0 0 0 0 0 0 0 0 0 0 0 0 0 0 0 0 0 0 0 0 0 0 0 0 0 0 0 0 0 0
0 0 0 0 0 0 0 0 0 0 0 0 0 0 0 0 0 0 0 0 0 0 0 0 0 0 0 0 0 0 0 0 0 0 0 0 0 0 0 0 0 0 0
0 0 0 0 0 0 0 0 0 0 0 0 0 0 0 0 0 0 0 0 0 0 0 0 0 0 0 0 0 0 0 0 0 0 0 0 0 0 0 0 0 0 0
0 0 0 0 0 0 0 0 0 0 0 0 0 0 0 0 0 0 0 0 0 0 0 0 0 0 0 0 0 0 0 0 0 0 0 0 0 0 0 0 0 0 0
0 0 0 0 0 0 0 0 0 0 0 0 0 0 0 0 0 0 0 0 0 0 0 0 0 0 0 0 0 0 0 0 0 0 0 0 0 0 0 0 0 0 0
0 0 0 0 0 -0 -0 -0 -0 0 0 -0 0 0 0 0 0 0 0 0 0 0 0 0 0 0 0 0 0 0 0 0 0 0 0 0 0 0 0 0 0 0 0
0 -0 -0 -0 -0 -0 -0 -0 -0 0 0 0 0 0 0 0 0 0 0 0 0 0 0 0 0 0 0 0 0 0 0 0 0 0 0 0 0 0 0 0 0 0 0
0 -0 -0 -0 -0 -0 0 0 0 0 0 0 0 0 0 0 0 0 0 0 0 0 0 0 0 0 0 0 0 0 0 0 0 0 0 0 0 0 0 0 0 0 0
0 -0 0 0 0 0 0 0 0 0 0 0 0 0 0 0 0 0 0 0 0 0 0 0 0 0 0 0 0 0 0 0 0 0 0 0 0 0 0 0 0 0 0
0 0 0 0 0 0 0 0 -0 0 0 0 0 0 0 0 0 0 0 0 0 0 0 0 0 0 0 0 0 0 0 0 0 0 0 0 0 0 0 0 0 0 0
0 0 0 0 0 0 0 0 0 0 0 0 0 0 0 0 0 0 0 0 0 0 0 0 0 0 0 0 0 0 0 0 0 0 0 0 0 0 0 0 0 0 0
-0 0 -0 -0 -0 0 0 0 -0 0 0 0 0 0 0 0 0 0 0 0 0 0 0 0 0 0 0 0 0 0 0 0 0 0 0 0 0 0 0 0 0 0 0
-0 -0 -0 -0 0 0 0 -0 -0 0 0 0 0 0 0 0 0 0 0 0 0 0 0 0 0 0 0 0 0 0 0 -0 0 0 0 0 0 0 0 -0 0 0 0
-0 -0 -0 -0 -0 0 0 0 0 0 0 0 0 0 0 0 0 0 0 0 0 0 0 0 0 0 0 0 0 0 0 -0 -0 0 0 0 0 0 0 0 0 0 0
-0 -0 -0 -0 -0 -0 -0 -0 0 0 0 0 0 0 0 0 0 0 0 0 0 0 0 0 0 0 0 0 0 0 0 0 0 0 0 0 0 0 0 0 0 0 0
-0 -0 -0 -0 -0 -0 -0 0 0 0 0 0 0 0 0 0 0 0 0 0 0 0 0 0 0 -0 0 0 0 0 0 0 0 0 0 0 0 0 0 0 0 0 0
Wind_Speed_500mb
38 45 47 46 45 51 43 33 45 47 47 51 56 55 51 45 42 34 30 30 32 37 38 38 38 39 43 47 56 51 47 52 52 51 60 71 69 70 70 67 61 57 56
30 42 42 35 42 48 49 42 46 59 58 60 61 61 54 48 42 36 37 37 37 35 37 39 38 37 39 43 49 59 65 58 52 51 52 63 72 58 45 45 56 58 49
29 32 35 36 39 47 53 51 52 62 69 68 66 66 59 57 51 48 42 34 30 28 26 29 30 31 33 37 43 53 60 70 77 75 72 48 45 61 59 53 40 31 34
32 36 40 44 47 52 56 59 60 69 73 68 61 59 54 51 42 38 31 25 19 21 27 31 32 34 35 35 35 41 53 64 64 72 80 82 75 59 62 67 80 65 63
34 35 37 42 47 47 48 62 71 72 68 63 53 44 37 31 28 24 21 20 23 27 32 33 32 30 30 35 36 41 43 50 63 73 82 72 70 67 73 62 72 77 78
26 28 28 25 25 28 33 52 59 54 52 45 33 21 19 21 19 18 22 24 24 25 25 29 36 37 37 34 34 40 45 48 48 58 77 77 64 61 64 68 78 80 94
35 37 43 44 30 13 7 14 23 29 20 18 16 13 11 15 21 25 25 26 31 31 33 30 29 29 30 37 40 43 43 46 50 49 51 61 70 77 79 77 78 88 83
44 34 28 28 32 32 28 25 19 13 5 4 9 15 21 24 27 31 34 40 40 38 39 37 37 38 36 36 37 41 44 47 47 50 54 60 58 61 66 80 90 66 69
30 36 36 24 15 15 15 14 10 5 8 15 21 25 30 35 39 42 42 44 45 44 43 44 45 46 45 42 41 38 43 48 46 47 50 51 57 61 63 68 73 79 52
32 34 33 25 20 17 17 18 22 23 24 27 32 34 37 43 47 48 46 49 49 53 55 55 57 53 52 50 50 43 37 43 51 53 52 55 55 60 63 70 76 78 79
33 29 27 30 28 44 44 42 44 40 39 45 49 48 50 49 50 51 52 51 54 58 62 64 65 63 59 55 51 48 46 43 44 50 58 58 59 60 64 71 78 82 83
36 33 28 30 29 28 26 28 25 30 38 31 33 40 43 45 50 53 55 59 65 67 68 67 66 67 66 62 60 60 56 52 54 50 57 63 61 62 62 65 74 78 78
26 17 8 4 5 10 13 19 25 28 31 37 40 44 46 49 52 55 58 61 65 68 70 67 70 70 66 63 65 63 59 63 60 55 54 61 60 63 60 59 64 68 65
16 14 14 17 19 25 33 39 43 47 52 57 60 63 65 67 69 70 71 72 73 77 78 77 77 76 76 76 72 68 64 63 63 67 61 59 64 60 57 54 54 52 52
16 19 24 30 37 45 51 57 61 64 66 69 70 71 71 73 77 81 83 85 86 88 89 90 92 93 92 87 78 78 74 73 69 68 68 59 63 61 46 50 51 51 56
20 24 33 43 52 58 63 67 68 69 71 75 79 80 82 86 91 94 96 96 96 95 93 92 91 86 85 84 74 66 71 72 70 67 68 67 63 65 52 43 35 40 51
30 42 54 61 65 66 66 67 73 77 80 83 88 94 99 100 98 93 92 93 93 90 93 94 93 95 94 89 85 85 83 81 76 69 64 67 69 66 60 44 35 40 43
43 56 63 72 74 72 73 79 81 82 89 98 103 103 97 90 85 81 80 89 93 79 79 83 84 92 95 94 93 86 85 87 93 95 92 81 78 75 61 57 54 43 41
50 59 65 69 71 73 77 80 87 94 99 101 100 93 78 73 78 78 88 75 66 73 84 81 69 72 73 84 78 74 79 82 81 79 82 87 87 77 63 59 55 52 52
54 63 65 65 74 76 78 89 99 100 100 94 83 77 90 91 80 78 82 87 83 81 66 84 82 66 57 63 56 56 67 67 67 68 71 68 76 69 61 61 57 55 63
64 64 63 74 77 82 89 99 97 95 86 78 88 91 82 73 79 84 74 70 76 70 67 66 68 70 81 65 62 60 61 63 63 67 61 49 52 53 59 56 58 63 62
71 70 72 79 85 91 90 94 93 82 83 90 84 84 80 77 77 73 71 67 66 64 64 62 60 57 55 63 62 51 56 53 61 62 54 41 36 30 39 50 56 55 57
72 73 79 90 97 94 85 87 84 85 87 81 79 80 76 74 71 71 71 67 64 64 60 60 64 46 48 54 55 51 54 53 54 54 48 35 35 43 43 42 35 47 65
71 80 89 97 100 90 87 75 82 81 77 78 77 75 76 73 68 64 58 56 57 54 60 58 53 50 43 46 43 48 53 52 52 52 42 35 31 37 32 26 37 43 64
78 86 89 90 92 89 84 79 77 71 72 73 74 75 71 68 68 61 58 57 55 53 53 55 51 49 58 38 48 52 48 39 41 42 38 33 35 40 51 49 23 42 54
85 87 85 80 85 85 81 77 70 65 65 72 71 67 66 65 60 57 56 48 47 44 50 54 57 54 50 55 49 39 33 34 32 30 35 35 39 48 73 54 28 47 52
Wind_Direction_500mb
262 277 269 275 234 241 237 233 217 218 221 220 223 225 234 242 249 250 247 270 277 279 281 284 284 286 286 286 281 272 284 289 292 295 294 292 290 290 285 279 281 282 281
268 275 274 260 237 238 239 233 223 214 217 219 224 225 231 237 246 243 247 252 258 263 269 276 281 281 280 277 280 281 278 268 266 289 289 291 299 303 297 284 277 276 282
318 297 289 275 256 244 243 240 230 219 214 215 218 223 231 239 234 234 238 246 254 263 275 285 288 286 280 276 272 269 273 273 272 263 261 262 258 291 286 295 278 264 264
307 282 278 277 272 267 257 236 228 219 216 219 219 226 237 232 221 221 227 235 258 284 296 300 299 294 282 275 273 271 264 269 261 268 255 255 261 264 274 270 267 273 271
328 312 292 271 268 257 248 236 221 217 216 218 222 228 222 223 219 225 247 266 282 292 297 298 302 304 297 282 274 267 268 265 265 265 258 266 266 263 259 256 263 274 266
6 354 341 318 290 267 235 226 221 217 210 208 208 217 228 236 245 265 280 294 303 305 304 309 309 305 301 292 285 279 276 273 273 262 257 262 257 253 255 255 264 268 276
55 60 58 49 46 55 133 162 182 188 191 202 214 237 260 274 284 293 292 305 308 305 307 312 322 318 324 315 301 287 281 281 280 275 268 264 263 259 262 256 261 273 279
49 46 57 72 80 79 81 86 87 92 109 228 261 278 287 290 291 293 292 299 300 300 301 303 307 316 314 322 310 303 288 283 281 278 273 273 273 268 248 252 269 263 267
24 28 39 39 50 65 70 73 69 30 325 305 298 293 289 287 285 283 284 289 288 287 286 292 298 299 307 308 313 305 297 287 289 290 284 276 269 270 257 258 262 262 252
353 342 339 342 359 14 5 346 329 310 293 283 278 276 277 278 277 275 280 284 285 289 291 291 294 292 292 296 302 306 303 291 286 287 289 287 273 264 262 261 264 265 261
333 337 320 309 291 289 285 290 293 294 287 283 284 287 286 270 263 263 266 271 275 276 279 285 285 281 280 282 282 290 292 299 299 294 284 286 287 275 266 261 259 263 264
313 305 291 279 272 280 283 285 286 286 293 296 296 289 280 274 272 270 270 267 265 265 268 267 268 273 276 277 278 282 287 289 293 299 289 282 285 281 274 269 267 265 265
294 293 275 307 3 342 316 309 311 306 300 297 292 289 287 287 285 282 279 276 273 270 268 268 266 267 267 270 274 274 277 282 288 291 291 281 281 282 278 277 272 266 264
60 35 14 356 341 329 321 314 308 307 305 302 298 294 291 288 285 282 278 275 273 273 271 269 270 270 269 267 264 263 268 270 276 283 288 281 275 281 280 276 279 267 251
8 1 353 343 333 326 320 316 312 310 307 304 302 300 297 294 292 290 288 284 281 278 276 274 272 269 267 266 264 258 262 265 267 271 278 281 274 273 278 272 276 263 243
341 338 335 331 327 323 320 316 314 312 309 306 303 301 300 298 295 292 290 287 283 280 278 275 273 269 265 261 260 261 257 255 256 260 270 274 281 271 268 273 265 253 248
325 328 331 326 322 318 315 314 312 310 307 305 304 304 303 300 297 295 293 290 287 285 280 277 273 269 267 258 256 254 259 262 260 261 263 270 277 272 264 260 268 267 252
323 323 322 319 317 314 313 312 309 307 307 307 307 306 305 301 297 292 283 285 288 280 272 269 269 269 266 261 261 256 253 258 260 262 263 263 268 268 268 261 263 261 260
316 314 315 313 311 311 311 309 308 309 308 307 308 307 305 296 289 286 287 293 278 272 274 282 277 276 269 260 260 253 249 255 262 266 267 264 256 260 267 262 259 256 260
312 314 314 309 308 310 311 310 311 312 310 310 306 297 292 294 294 287 286 289 284 285 280 267 269 263 268 261 250 249 252 253 260 270 260 260 248 252 260 261 255 256 255
315 316 309 309 310 312 315 313 312 309 312 306 298 302 303 296 290 295 294 287 284 285 281 278 276 266 254 260 258 249 242 251 265 273 259 257 240 251 254 251 249 251 241
316 315 313 310 312 316 316 313 311 313 307 307 305 304 303 300 299 297 295 291 285 280 276 276 278 273 265 252 253 240 238 261 270 261 252 253 241 238 257 250 257 243 225
316 315 315 315 316 318 317 313 312 312 311 308 305 306 306 305 303 300 296 292 288 281 275 273 264 272 265 256 249 243 246 257 259 243 244 254 241 250 258 260 221 211 185
315 318 318 317 316 318 317 314 313 314 313 310 309 309 310 310 308 304 298 291 283 275 274 269 267 251 261 255 244 251 259 250 243 236 238 246 235 230 221 201 182 174 170
318 320 318 317 316 317 318 318 317 317 313 309 310 311 312 312 311 308 301 292 284 275 267 263 259 263 247 236 235 254 257 235 234 228 233 225 228 202 181 186 202 193 199
320 319 319 316 315 317 319 319 321 318 312 310 313 314 314 312 310 309 309 304 296 285 267 261 249 239 238 243 249 243 228 218 228 233 226 211 211 190 179 192 196 181 179
Wind_Speed_850mb
38 45 47 46 45 51 43 33 45 47 47 51 56 55 51 45 42 34 30 30 32 37 38 38 38 39 43 47 56 51 47 52 52 51 60 71 69 70 70 67 61 57 56
30 42 42 35 42 48 49 42 46 59 58 60 61 61 54 48 42 36 37 37 37 35 37 39 38 37 39 43 49 59 65 58 52 51 52 63 72 58 45 45 56 58 49
29 32 35 36 39 47 53 51 52 62 69 68 66 66 59 57 51 48 42 34 30 28 26 29 30 31 33 37 43 53 60 70 77 75 72 48 45 61 59 53 40 31 34
32 36 40 44 47 52 56 59 60 69 73 68 61 59 54 51 42 38 31 25 19 21 27 31 32 34 35 35 35 41 53 64 64 72 80 82 75 59 62 67 80 65 63
34 35 37 42 47 47 48 62 71 72 68 63 53 44 37 31 28 24 21 20 23 27 32 33 32 30 30 35 36 41 43 50 63 73 82 72 70 67 73 62 72 77 78
26 28 28 25 25 28 33 52 59 54 52 45 33 21 19 21 19 18 22 24 24 25 25 29 36 37 37 34 34 40 45 48 48 58 77 77 64 61 64 68 78 80 94
35 37 43 44 30 13 7 14 23 29 20 18 16 13 11 15 21 25 25 26 31 31 33 30 29 29 30 37 40 43 43 46 50 49 51 61 70 77 79 77 78 88 83
44 34 28 28 32 32 28 25 19 13 5 4 9 15 21 24 27 31 34 40 40 38 39 37 37 38 36 36 37 41 44 47 47 50 54 60 58 61 66 80 90 66 69
30 36 36 24 15 15 15 14 10 5 8 15 21 25 30 35 39 42 42 44 45 44 43 44 45 46 45 42 41 38 43 48 46 47 50 51 57 61 63 68 73 79 52
32 34 33 25 20 17 17 18 22 23 24 27 32 34 37 43 47 48 46 49 49 53 55 55 57 53 52 50 50 43 37 43 51 53 52 55 55 60 63 70 76 78 79
33 29 27 30 28 44 44 42 44 40 39 45 49 48 50 49 50 51 52 51 54 58 62 64 65 63 59 55 51 48 46 43 44 50 58 58 59 60 64 71 78 82 83
36 33 28 30 29 28 26 28 25 30 38 31 33 40 43 45 50 53 55 59 65 67 68 67 66 67 66 62 60 60 56 52 54 50 57 63 61 62 62 65 74 78 78
26 17 8 4 5 10 13 19 25 28 31 37 40 44 46 49 52 55 58 61 65 68 70 67 70 70 66 63 65 63 59 63 60 55 54 61 60 63 60 59 64 68 65
16 14 14 17 19 25 33 39 43 47 52 57 60 63 65 67 69 70 71 72 73 77 78 77 77 76 76 76 72 68 64 63 63 67 61 59 64 60 57 54 54 52 52
16 19 24 30 37 45 51 57 61 64 66 69 70 71 71 73 77 81 83 85 86 88 89 90 92 93 92 87 78 78 74 73 69 68 68 59 63 61 46 50 51 51 56
20 24 33 43 52 58 63 67 68 69 71 75 79 80 82 86 91 94 96 96 96 95 93 92 91 86 85 84 74 66 71 72 70 67 68 67 63 65 52 43 35 40 51
30 42 54 61 65 66 66 67 73 77 80 83 88 94 99 100 98 93 92 93 93 90 93 94 93 95 94 89 85 85 83 81 76 69 64 67 69 66 60 44 35 40 43
43 56 63 72 74 72 73 79 81 82 89 98 103 103 97 90 85 81 80 89 93 79 79 83 84 92 95 94 93 86 85 87 93 95 92 81 78 75 61 57 54 43 41
50 59 65 69 71 73 77 80 87 94 99 101 100 93 78 73 78 78 88 75 66 73 84 81 69 72 73 84 78 74 79 82 81 79 82 87 87 77 63 59 55 52 52
54 63 65 65 74 76 78 89 99 100 100 94 83 77 90 91 80 78 82 87 83 81 66 84 82 66 57 63 56 56 67 67 67 68 71 68 76 69 61 61 57 55 63
64 64 63 74 77 82 89 99 97 95 86 78 88 91 82 73 79 84 74 70 76 70 67 66 68 70 81 65 62 60 61 63 63 67 61 49 52 53 59 56 58 63 62
71 70 72 79 85 91 90 94 93 82 83 90 84 84 80 77 77 73 71 67 66 64 64 62 60 57 55 63 62 51 56 53 61 62 54 41 36 30 39 50 56 55 57
72 73 79 90 97 94 85 87 84 85 87 81 79 80 76 74 71 71 71 67 64 64 60 60 64 46 48 54 55 51 54 53 54 54 48 35 35 43 43 42 35 47 65
71 80 89 97 100 90 87 75 82 81 77 78 77 75 76 73 68 64 58 56 57 54 60 58 53 50 43 46 43 48 53 52 52 52 42 35 31 37 32 26 37 43 64
78 86 89 90 92 89 84 79 77 71 72 73 74 75 71 68 68 61 58 57 55 53 53 55 51 49 58 38 48 52 48 39 41 42 38 33 35 40 51 49 23 42 54
85 87 85 80 85 85 81 77 70 65 65 72 71 67 66 65 60 57 56 48 47 44 50 54 57 54 50 55 49 39 33 34 32 30 35 35 39 48 73 54 28 47 52
Wind_Direction_850mb
262 277 269 275 234 241 237 233 217 218 221 220 223 225 234 242 249 250 247 270 277 279 281 284 284 286 286 286 281 272 284 289 292 295 294 292 290 290 285 279 281 282 281
268 275 274 260 237 238 239 233 223 214 217 219 224 225 231 237 246 243 247 252 258 263 269 276 281 281 280 277 280 281 278 268 266 289 289 291 299 303 297 284 277 276 282
318 297 289 275 256 244 243 240 230 219 214 215 218 223 231 239 234 234 238 246 254 263 275 285 288 286 280 276 272 269 273 273 272 263 261 262 258 291 286 295 278 264 264
307 282 278 277 272 267 257 236 228 219 216 219 219 226 237 232 221 221 227 235 258 284 296 300 299 294 282 275 273 271 264 269 261 268 255 255 261 264 274 270 267 273 271
328 312 292 271 268 257 248 236 221 217 216 218 222 228 222 223 219 225 247 266 282 292 297 298 302 304 297 282 274 267 268 265 265 265 258 266 266 263 259 256 263 274 266
6 354 341 318 290 267 235 226 221 217 210 208 208 217 228 236 245 265 280 294 303 305 304 309 309 305 301 292 285 279 276 273 273 262 257 262 257 253 255 255 264 268 276
55 60 58 49 46 55 133 162 182 188 191 202 214 237 260 274 284 293 292 305 308 305 307 312 322 318 324 315 301 287 281 281 280 275 268 264 263 259 262 256 261 273 279
49 46 57 72 80 79 81 86 87 92 109 228 261 278 287 290 291 293 292 299 300 300 301 303 307 316 314 322 310 303 288 283 281 278 273 273 273 268 248 252 269 263 267
24 28 39 39 50 65 70 73 69 30 325 305 298 293 289 287 285 283 284 289 288 287 286 292 298 299 307 308 313 305 297 287 289 290 284 276 269 270 257 258 262 262 252
353 342 339 342 359 14 5 346 329 310 293 283 278 276 277 278 277 275 280 284 285 289 291 291 294 292 292 296 302 306 303 291 286 287 289 287 273 264 262 261 264 265 261
333 337 320 309 291 289 285 290 293 294 287 283 284 287 286 270 263 263 266 271 275 276 279 285 285 281 280 282 282 290 292 299 299 294 284 286 287 275 266 261 259 263 264
313 305 291 279 272 280 283 285 286 286 293 296 296 289 280 274 272 270 270 267 265 265 268 267 268 273 276 277 278 282 287 289 293 299 289 282 285 281 274 269 267 265 265
294 293 275 307 3 342 316 309 311 306 300 297 292 289 287 287 285 282 279 276 273 270 268 268 266 267 267 270 274 274 277 282 288 291 291 281 281 282 278 277 272 266 264
60 35 14 356 341 329 321 314 308 307 305 302 298 294 291 288 285 282 278 275 273 273 271 269 270 270 269 267 264 263 268 270 276 283 288 281 275 281 280 276 279 267 251
8 1 353 343 333 326 320 316 312 310 307 304 302 300 297 294 292 290 288 284 281 278 276 274 272 269 267 266 264 258 262 265 267 271 278 281 274 273 278 272 276 263 243
341 338 335 331 327 323 320 316 314 312 309 306 303 301 300 298 295 292 290 287 283 280 278 275 273 269 265 261 260 261 257 255 256 260 270 274 281 271 268 273 265 253 248
325 328 331 326 322 318 315 314 312 310 307 305 304 304 303 300 297 295 293 290 287 285 280 277 273 269 267 258 256 254 259 262 260 261 263 270 277 272 264 260 268 267 252
323 323 322 319 317 314 313 312 309 307 307 307 307 306 305 301 297 292 283 285 288 280 272 269 269 269 266 261 261 256 253 258 260 262 263 263 268 268 268 261 263 261 260
316 314 315 313 311 311 311 309 308 309 308 307 308 307 305 296 289 286 287 293 278 272 274 282 277 276 269 260 260 253 249 255 262 266 267 264 256 260 267 262 259 256 260
312 314 314 309 308 310 311 310 311 312 310 310 306 297 292 294 294 287 286 289 284 285 280 267 269 263 268 261 250 249 252 253 260 270 260 260 248 252 260 261 255 256 255
315 316 309 309 310 312 315 313 312 309 312 306 298 302 303 296 290 295 294 287 284 285 281 278 276 266 254 260 258 249 242 251 265 273 259 257 240 251 254 251 249 251 241
316 315 313 310 312 316 316 313 311 313 307 307 305 304 303 300 299 297 295 291 285 280 276 276 278 273 265 252 253 240 238 261 270 261 252 253 241 238 257 250 257 243 225
316 315 315 315 316 318 317 313 312 312 311 308 305 306 306 305 303 300 296 292 288 281 275 273 264 272 265 256 249 243 246 257 259 243 244 254 241 250 258 260 221 211 185
315 318 318 317 316 318 317 314 313 314 313 310 309 309 310 310 308 304 298 291 283 275 274 269 267 251 261 255 244 251 259 250 243 236 238 246 235 230 221 201 182 174 170
318 320 318 317 316 317 318 318 317 317 313 309 310 311 312 312 311 308 301 292 284 275 267 263 259 263 247 236 235 254 257 235 234 228 233 225 228 202 181 186 202 193 199
320 319 319 316 315 317 319 319 321 318 312 310 313 314 314 312 310 309 309 304 296 285 267 261 249 239 238 243 249 243 228 218 228 233 226 211 211 190 179 192 196 181 179